Location: El Gallo
(32.4380°N, 116.9347°W)
Time: 20:03:40
(UTC+00:00)

Intercosmos 24 Rocket - Pass Details

Date: 01 October 2022
Orbit: 498 x 2438 km, 82.6° (Epoch: 02 December)

Event Time Altitude Azimuth Distance (km) Brightness Sun altitude
Rises 12:04:19 0° 350° (N) 3,279 8.3 -21.3°
Reaches altitude 10° 12:06:59 10° 348° (NNW) 2,132 7.3 -20.8°
Maximum altitude 12:11:24 66° 267° (W) 615 4.2 -19.9°
Drops below altitude 10° 12:14:56 10° 184° (S) 1,714 6.7 -19.1°
Sets 12:16:53 0° 181° (S) 2,570 7.6 -18.7°
